Location: Hazelwood
(35.4687°N, 83.0040°W)
Time: 19:53:57
(UTC+00:00)

BlueWalker 3 - Visible Passes

Search period start: 08 December 2022 00:00
Search period end: 18 December 2022 00:00
Orbit: 501 x 518 km, 53.2° (Epoch: 08 December)

Date Brightness Start Highest point End Pass type
(mag) Time Alt. Az. Time Alt. Az. Time Alt. Az.
08 Dec 4.2 00:07:34 10° NNW 00:08:29 14° N 00:08:29 14° N visible
08 Dec 3.6 23:49:06 10° NNW 23:51:16 21° N 23:51:16 21° N visible
09 Dec 3.1 23:30:38 10° NNW 23:33:52 24° NE 23:34:13 24° NE visible
10 Dec 5.2 01:09:00 10° WNW 01:09:06 11° WNW 01:09:06 11° WNW visible
10 Dec 3.1 23:12:10 10° NNW 23:15:29 26° NE 23:17:27 17° ENE visible
11 Dec 4.3 00:50:37 10° WNW 00:52:21 22° W 00:52:21 22° W visible
11 Dec 3.0 22:53:42 10° NNW 22:57:05 27° NE 23:00:26 10° E visible
12 Dec 3.5 00:32:14 10° WNW 00:35:44 32° SW 00:36:00 32° SW visible
13 Dec 3.8 00:13:52 10° WNW 00:17:17 30° SW 00:20:15 12° S visible
13 Dec 4.0 23:55:29 10° WNW 23:58:49 28° SW 00:02:09 10° S visible
14 Dec 4.3 23:37:06 10° WNW 23:40:22 26° SW 23:43:36 10° S visible
15 Dec 4.6 23:18:45 10° WNW 23:21:54 24° SW 23:25:02 10° S visible
16 Dec 4.9 23:00:23 10° WNW 23:03:26 22° SW 23:06:27 10° S visible
17 Dec 5.1 22:42:01 10° WNW 22:44:57 20° SW 22:47:51 10° S visible
